Flag for U.S.A. Weather past 2 weeks in Fort Lauderdale, Florida, U.S.A.

Now
85 °F

Broken clouds.


Feels Like: 94 °F
Forecast: 77 / 86 °F
Wind: 7 mph from Southwest

Location: Fort Lauderdale / Hollywood International Airport

Current Time: Sep 30, 2014 at 6:09:18 PM

Latest Report: Sep 30, 2014 at 4:53 PM


Visibility: 10 mi

Pressure: 29.82 "Hg

Humidity: 75%

Dew point: 76 °F

Location of Fort LauderdaleLocation

Historic Weather in Fort Lauderdale — Graph

°F

Fort Lauderdale temperature yesterday

Maximum temperature yesterday: 88 °F (at 11:53 AM)
Minimum temperature yesterday: 77 °F (at 9:53 PM)
Average temperature yesterday: 83 °F

Past Weeks' High & Low Weather Summary

 TemperatureHumidityPressure
High91 °F (Sep 17, 12:53 PM)100% (Sep 20, 4:53 PM)30.13 "Hg (Sep 20, 4:53 PM)
Low73 °F (Sep 23, 9:53 AM)49% (Sep 17, 2:53 PM)29.82 "Hg (Sep 29, 3:53 PM)
Average81 °F79%29.96 "Hg
* Reported Sep 15 4:53 PM — Sep 30 4:53 PM, Fort Lauderdale, Weather by CustomWeather, © 2014

Note: Actual official high and low records may vary slightly from our data, if they occured in-between our weather recording intervals... More about our weather records

Advertising

Fort Lauderdale weather history for previous 24 hours

 ConditionsComfort  
Time TempWeatherWind HumidityBarometerVisibility
4:53 PM
Sep 30
85 °FBroken clouds.7 mph75%29.82 "Hg10 mi
3:53 PM84 °FBroken clouds.13 mph72%29.83 "Hg10 mi
2:53 PM87 °FPassing clouds.16 mph65%29.83 "Hg10 mi
1:53 PM88 °FBroken clouds.13 mph67%29.83 "Hg10 mi
12:53 PM89 °FThunderstorms. Partly sunny.12 mph59%29.85 "Hg10 mi
11:53 AM89 °FScattered clouds.15 mph59%29.86 "Hg10 mi
10:53 AM87 °FScattered clouds.8 mph65%29.87 "Hg10 mi
9:53 AM84 °FScattered clouds.9 mph80%29.88 "Hg10 mi
8:53 AM81 °FScattered clouds.7 mph88%29.88 "Hg10 mi
7:53 AM79 °FPassing clouds.5 mph88%29.85 "Hg10 mi
6:53 AM78 °FPassing clouds.3 mph90%29.84 "Hg10 mi
5:53 AM78 °FPassing clouds.5 mph90%29.83 "Hg10 mi
4:53 AM78 °FPassing clouds.3 mph90%29.82 "Hg10 mi
3:53 AM78 °FPassing clouds.3 mph90%29.82 "Hg10 mi
2:53 AM78 °FPartly cloudy.3 mph90%29.84 "Hg10 mi
1:53 AM79 °FPartly cloudy.No wind90%29.85 "Hg10 mi
12:53 AM79 °FPassing clouds.No wind88%29.86 "Hg10 mi
11:53 PM
Sep 29
78 °FPassing clouds.No wind87%29.86 "Hg10 mi
10:53 PM77 °FOvercast.5 mph90%29.88 "Hg10 mi
9:53 PM77 °FMostly cloudy.7 mph90%29.89 "Hg10 mi
9:02 PM78 °FHeavy rain. Fog.5 mph90%29.90 "Hg2 mi
8:53 PM79 °FLight rain. Mostly cloudy.6 mph90%29.90 "Hg10 mi
7:53 PM80 °FThunderstorms. Mostly cloudy.9 mph85%29.86 "Hg10 mi
6:53 PM85 °FThunderstorms. Mostly cloudy.10 mph70%29.84 "Hg10 mi
Weather by CustomWeather, © 2014

See weather overviewHow to use our weather pages